Location: La Tine
(46.4708°N, 7.0525°E)
Time: 01:01:52
(UTC+00:00)

Meteor 1-24 Rocket - Pass Details

Date: 23 January 2021
Orbit: 791 x 926 km, 81.3° (Epoch: 03 March)

Event Time Altitude Azimuth Distance (km) Brightness Sun altitude
Rises 17:10:48 0° 197° (SSW) 3,306 7.4 -8.4°
Reaches altitude 10° 17:13:12 10° 200° (SSW) 2,368 6.6 -8.8°
Maximum altitude 17:18:29 66° 283° (WNW) 865 4.0 -9.7°
Drops below altitude 10° 17:23:47 10° 6° (N) 2,369 5.8 -10.5°
Sets 17:26:12 0° 9° (N) 3,308 6.5 -10.9°
